Weather History for Fort Wayne, IN

Change the Weather History Date:

Thursday, January 31, 2013

  Actual Average Record
Temperature  
Mean Temperature 21 °F 25 °F  
Max Temperature 30 °F 33 °F 61 °F (1989)
Min Temperature 12 °F 18 °F -18 °F (1963)
Degree Days  
Heating Degree Days 44 40  
Month to date heating degree days 1145 1239  
Since 1 July heating degree days 3347 3571  
Cooling Degree Days 0 0  
Month to date cooling degree days 0 0  
Year to date cooling degree days 0 0  
Moisture  
Dew Point 15 °F    
Average Humidity 78    
Maximum Humidity 88    
Minimum Humidity 67    
Precipitation  
Precipitation T in 0.07 in 1.12 in (1982)
Month to date precipitation 3.43 2.26  
Year to date precipitation 3.43 2.26  
Snow  
Snow 0.50 in 0.30 in 10.80 in (1982)
Month to date snowfall 2.6 10.1  
Since 1 July snowfall 12.2 20.7  
Snow Depth T in    
Sea Level Pressure  
Sea Level Pressure 29.77 in    
Wind  
Wind Speed 23 mph (West)    
Max Wind Speed 36 mph    
Max Gust Speed 46 mph    
Visibility 6 miles    
Events Snow    
T = Trace of Precipitation, MM = Missing Value Source: NWS Daily Summary

Daily Weather History Graph

Daily Weather History Graph

Search for Another Location

Airport:

Trip Planner

Search our weather history database for the weather conditions in past years. The results will help you decide how hot, cold, wet, or windy it might be!

Date:

Astronomy

Jan. 31, 2013 Rise Set
Actual Time 7:52 AM EST 5:56 PM EST
Civil Twilight 7:22 AM EST 6:26 PM EST
Nautical Twilight 6:49 AM EST 6:59 PM EST
Astronomical Twilight 6:17 AM EST 7:31 PM EST
Moon 11:01 PM EST (1/31) 9:48 AM EST (1/31)
Length of Visible Light 11h 03m
Length of Day
10h 04m
Waning Gibbous, 80% of the Moon is Illuminated
Jan 31
Waning Gibbous
Feb 3
Last Quarter
Feb 10
New
Feb 17
First Quarter
Feb 25
Full

Hourly Weather History & Observations

Time (EST) Temp. Windchill Dew Point Humidity Pressure Visibility Wind Dir Wind Speed Gust Speed Precip Events Conditions
12:03 AM 30.2 °F 16.5 °F 26.6 °F 86% 29.46 in 2.5 mi West 24.2 mph 34.5 mph 0.00 in Snow Light Snow
12:09 AM 30.2 °F 16.5 °F 26.6 °F 86% 29.46 in 4.0 mi West 24.2 mph 34.5 mph 0.00 in Snow Light Snow
12:54 AM 28.0 °F 12.8 °F 23.0 °F 81% 29.52 in 8.0 mi West 27.6 mph 40.3 mph 0.00 in Snow Light Snow
1:54 AM 26.1 °F 10.4 °F 19.0 °F 75% 29.55 in 10.0 mi West 26.5 mph 41.4 mph 0.00 in Snow Light Snow
2:30 AM 26.6 °F 10.6 °F 21.2 °F 80% 29.57 in 2.0 mi West 28.8 mph 35.7 mph 0.00 in Snow Light Snow
2:41 AM 24.8 °F 8.7 °F 21.2 °F 86% 29.58 in 1.8 mi West 26.5 mph 39.1 mph 0.00 in Snow Light Snow
2:46 AM 24.8 °F 8.1 °F 19.4 °F 80% 29.58 in 4.0 mi West 28.8 mph 40.3 mph 0.00 in Snow Light Snow
2:54 AM 25.0 °F 8.4 °F 18.0 °F 75% 29.60 in 6.0 mi West 28.8 mph 36.8 mph 0.00 in Snow Light Snow
3:07 AM 24.8 °F 8.7 °F 17.6 °F 74% 29.59 in 9.0 mi West 26.5 mph 40.3 mph 0.00 in Snow Light Snow
3:54 AM 23.0 °F 6.6 °F 19.9 °F 88% 29.63 in 2.0 mi WSW 25.3 mph 36.8 mph 0.00 in Snow Light Snow
4:09 AM 21.2 °F 4.5 °F 19.4 °F 93% 29.62 in 1.5 mi West 24.2 mph 32.2 mph 0.00 in Snow Light Snow
4:21 AM 21.2 °F 3.3 °F 17.6 °F 86% 29.63 in 3.0 mi West 28.8 mph 38.0 mph 0.00 in Snow Light Snow
4:38 AM 21.2 °F 3.3 °F 17.6 °F 86% 29.63 in 5.0 mi West 28.8 mph 35.7 mph 0.00 in Snow Light Snow
4:54 AM 21.9 °F 5.1 °F 17.1 °F 82% 29.66 in 2.5 mi West 25.3 mph 36.8 mph 0.00 in Snow Light Snow
5:12 AM 21.2 °F 3.5 °F 17.6 °F 86% 29.65 in 3.0 mi West 27.6 mph 40.3 mph 0.00 in Snow Light Snow
5:49 AM 21.2 °F 3.0 °F 17.6 °F 86% 29.67 in 1.2 mi WSW 29.9 mph 39.1 mph 0.00 in Snow Light Snow
5:54 AM 21.0 °F 3.6 °F 17.1 °F 85% 29.69 in 1.2 mi West 26.5 mph 38.0 mph 0.00 in Snow Light Snow
6:02 AM 19.4 °F 0.5 °F 14.0 °F 80% 29.67 in 4.0 mi West 29.9 mph 38.0 mph 0.00 in Snow Light Snow
6:54 AM 19.0 °F 1.6 °F 14.0 °F 81% 29.73 in 5.0 mi West 24.2 mph 33.4 mph 0.00 in Snow Light Snow
7:13 AM 19.4 °F 2.1 °F 10.4 °F 68% 29.70 in 10.0 mi West 24.2 mph 33.4 mph 0.00 in Snow Light Snow
7:54 AM 19.0 °F 2.0 °F 12.0 °F 74% 29.75 in 5.0 mi West 23.0 mph 33.4 mph 0.00 in Snow Light Snow
8:18 AM 17.6 °F -0.6 °F 12.2 °F 79% 29.74 in 2.5 mi West 25.3 mph 36.8 mph 0.00 in Snow Light Snow
8:28 AM 17.6 °F -1.0 °F 12.2 °F 79% 29.74 in 6.0 mi WSW 26.5 mph 33.4 mph 0.00 in Snow Light Snow
8:51 AM 17.6 °F -0.3 °F 12.2 °F 79% 29.75 in 9.0 mi West 24.2 mph 29.9 mph 0.00 in Snow Light Snow
8:54 AM 18.0 °F -0.8 °F 12.0 °F 78% 29.78 in 9.0 mi West 27.6 mph 35.7 mph 0.00 in Snow Light Snow
9:54 AM 19.0 °F 1.0 °F 12.0 °F 74% 29.81 in 8.0 mi West 26.5 mph 35.7 mph 0.00 in Snow Light Snow
10:51 AM 19.4 °F 4.5 °F 15.8 °F 86% 29.81 in 2.5 mi West 17.3 mph - 0.00 in Snow Light Snow
10:54 AM 19.9 °F 5.7 °F 16.0 °F 85% 29.84 in 2.5 mi West 16.1 mph - 0.00 in Snow Light Snow
11:35 AM 21.2 °F 6.4 °F 17.6 °F 86% 29.81 in 1.2 mi West 18.4 mph 21.9 mph 0.00 in Snow Light Snow
11:48 AM 21.2 °F 5.6 °F 17.6 °F 86% 29.81 in 4.0 mi West 20.7 mph 25.3 mph 0.00 in Snow Light Snow
11:54 AM 21.9 °F 7.3 °F 18.0 °F 85% 29.84 in 5.0 mi West 18.4 mph 25.3 mph 0.00 in Snow Light Snow
12:38 PM 23.0 °F 6.9 °F 15.8 °F 74% 29.81 in 9.0 mi WSW 24.2 mph 29.9 mph 0.00 in Snow Light Snow
12:54 PM 23.0 °F 7.2 °F 15.1 °F 72% 29.84 in 9.0 mi West 23.0 mph 33.4 mph 0.00 in Snow Light Snow
1:54 PM 23.0 °F 5.4 °F 14.0 °F 68% 29.85 in 9.0 mi West 29.9 mph 35.7 mph 0.00 in Snow Light Snow
2:19 PM 21.2 °F 4.5 °F 15.8 °F 80% 29.82 in 6.0 mi West 24.2 mph 32.2 mph 0.00 in Snow Light Snow
2:44 PM 23.0 °F 7.6 °F 15.8 °F 74% 29.82 in 7.0 mi West 21.9 mph 33.4 mph 0.00 in Snow Light Snow
2:54 PM 21.9 °F 4.5 °F 15.1 °F 75% 29.86 in 8.0 mi West 27.6 mph 36.8 mph 0.00 in Snow Light Snow
3:16 PM 21.2 °F 4.9 °F 12.2 °F 68% 29.83 in 9.0 mi West 23.0 mph 39.1 mph 0.00 in   Mostly Cloudy
3:46 PM 21.2 °F 4.5 °F 10.4 °F 63% 29.84 in 10.0 mi West 24.2 mph 39.1 mph 0.00 in   Mostly Cloudy
3:54 PM 21.9 °F 4.5 °F 10.9 °F 63% 29.87 in 10.0 mi West 27.6 mph 35.7 mph 0.00 in   Mostly Cloudy
4:54 PM 19.9 °F 2.8 °F 12.0 °F 71% 29.89 in 8.0 mi West 24.2 mph 28.8 mph 0.00 in Snow Light Snow
5:54 PM 19.0 °F 3.6 °F 12.0 °F 74% 29.91 in 10.0 mi WNW 18.4 mph 29.9 mph 0.00 in   Overcast
6:54 PM 18.0 °F 0.9 °F 10.0 °F 71% 29.94 in 7.0 mi West 21.9 mph 34.5 mph 0.00 in Snow Light Snow
7:13 PM 15.8 °F -0.6 °F 12.2 °F 86% 29.91 in 2.0 mi WNW 18.4 mph 23.0 mph 0.00 in Snow Light Snow
7:16 PM 15.8 °F -0.2 °F 12.2 °F 86% 29.91 in 1.5 mi WNW 17.3 mph - 0.00 in Snow Light Snow
7:23 PM 17.6 °F 1.7 °F 12.2 °F 79% 29.92 in 5.0 mi West 18.4 mph - 0.00 in Snow Light Snow
7:54 PM 16.0 °F 0.1 °F 12.0 °F 84% 29.97 in 5.0 mi West 17.3 mph 21.9 mph 0.00 in Snow Light Snow
8:54 PM 15.1 °F -2.0 °F 7.0 °F 70% 29.99 in 9.0 mi West 19.6 mph - 0.00 in Snow Light Snow
9:54 PM 14.0 °F -2.0 °F 5.0 °F 67% 30.00 in 10.0 mi WNW 16.1 mph 26.5 mph 0.00 in   Scattered Clouds
10:22 PM 12.2 °F -6.3 °F 6.8 °F 79% 29.96 in 10.0 mi West 20.7 mph 26.5 mph N/A   Mostly Cloudy
10:54 PM 12.9 °F -5.3 °F 7.0 °F 77% 30.02 in 10.0 mi West 20.7 mph 26.5 mph N/A   Overcast
11:25 PM 12.2 °F -5.3 °F 5.0 °F 73% 29.99 in 10.0 mi West 18.4 mph 32.2 mph N/A   Overcast
11:54 PM 12.0 °F -6.0 °F 6.1 °F 77% 30.05 in 7.0 mi West 19.6 mph 28.8 mph 0.00 in   Overcast